Time,TemperatureF,DewpointF,PressureIn,WindDirection,WindDirectionDegrees,WindSpeedMPH,WindSpeedGustMPH,Humidity,HourlyPrecipIn,Conditions,Clouds,dailyrainin,SoftwareType,DateUTC
2013-07-12 00:00:00,72.8,72.8,29.75,ESE,102,0.0,0.0,100,0.00,,---,0.18,VWS V14.01,2013-07-12 04:00:00,
2013-07-12 00:10:00,72.7,72.7,29.75,East,99,0.0,0.0,100,0.00,,---,0.00,VWS V14.01,2013-07-12 04:10:00,
2013-07-12 00:20:00,72.8,72.8,29.75,East,82,0.0,1.0,100,0.00,,---,0.00,VWS V14.01,2013-07-12 04:20:00,
2013-07-12 00:30:00,72.5,72.5,29.75,ESE,104,0.0,0.0,100,0.00,,---,0.00,VWS V14.01,2013-07-12 04:30:00,
2013-07-12 00:40:00,72.5,72.5,29.75,ESE,104,0.0,0.0,100,0.00,,---,0.00,VWS V14.01,2013-07-12 04:40:00,
2013-07-12 00:50:00,72.5,72.5,29.77,ESE,104,0.0,0.0,100,0.00,,---,0.00,VWS V14.01,2013-07-12 04:50:00,
2013-07-12 01:00:00,72.5,72.5,29.76,ESE,104,0.0,0.0,100,0.00,,---,0.00,VWS V14.01,2013-07-12 05:00:00,
2013-07-12 01:10:00,72.5,72.5,29.76,ESE,104,0.0,0.0,100,0.00,,---,0.00,VWS V14.01,2013-07-12 05:10:00,
2013-07-12 01:20:00,71.8,71.8,29.76,NE,52,0.0,0.0,100,0.06,,---,0.06,VWS V14.01,2013-07-12 05:20:00,
2013-07-12 01:30:00,71.8,71.8,29.75,NE,52,0.0,0.0,100,0.06,,---,0.06,VWS V14.01,2013-07-12 05:30:00,
2013-07-12 01:40:00,71.6,71.6,29.75,NE,52,0.0,0.0,100,0.07,,---,0.07,VWS V14.01,2013-07-12 05:40:00,
2013-07-12 01:50:00,71.6,71.6,29.74,NE,52,0.0,0.0,100,0.11,,---,0.11,VWS V14.01,2013-07-12 05:50:00,
2013-07-12 02:00:00,71.5,71.5,29.74,NE,52,0.0,0.0,100,0.12,,---,0.12,VWS V14.01,2013-07-12 06:00:00,
2013-07-12 02:10:00,71.5,71.5,29.74,NE,54,0.0,0.0,100,0.12,,---,0.12,VWS V14.01,2013-07-12 06:10:00,
2013-07-12 02:20:00,71.5,71.5,29.74,NE,54,0.0,0.0,100,0.12,,---,0.12,VWS V14.01,2013-07-12 06:20:00,
2013-07-12 02:30:00,71.3,71.3,29.73,NE,54,0.0,0.0,100,0.07,,---,0.13,VWS V14.01,2013-07-12 06:30:00,
2013-07-12 02:40:00,71.1,71.1,29.73,NE,54,0.0,0.0,100,0.07,,---,0.13,VWS V14.01,2013-07-12 06:40:00,
2013-07-12 02:50:00,71.1,71.1,29.73,NE,54,0.0,0.0,100,0.06,,---,0.13,VWS V14.01,2013-07-12 06:50:00,
2013-07-12 03:00:00,71.1,71.1,29.73,NE,54,0.0,0.0,100,0.02,,---,0.13,VWS V14.01,2013-07-12 07:00:00,
2013-07-12 03:10:00,71.1,71.1,29.73,NE,54,0.0,0.0,100,0.01,,---,0.13,VWS V14.01,2013-07-12 07:10:00,
2013-07-12 03:20:00,71.1,71.1,29.73,NE,54,0.0,0.0,100,0.01,,---,0.13,VWS V14.01,2013-07-12 07:20:00,
2013-07-12 03:30:00,71.1,71.1,29.73,NNW,340,0.0,0.0,100,0.01,,---,0.13,VWS V14.01,2013-07-12 07:30:00,
2013-07-12 03:40:00,71.3,71.3,29.73,NNW,340,0.0,0.0,100,0.00,,---,0.13,VWS V14.01,2013-07-12 07:40:00,
2013-07-12 03:50:00,71.3,71.3,29.73,NNW,340,0.0,0.0,100,0.00,,---,0.13,VWS V14.01,2013-07-12 07:50:00,
2013-07-12 04:00:00,71.3,71.3,29.72,NNW,340,0.0,0.0,100,0.00,,---,0.13,VWS V14.01,2013-07-12 08:00:00,
2013-07-12 04:10:00,71.3,71.3,29.72,NNW,340,0.0,0.0,100,0.00,,---,0.13,VWS V14.01,2013-07-12 08:10:00,
2013-07-12 04:20:00,71.5,71.5,29.73,NNW,340,0.0,0.0,100,0.00,,---,0.13,VWS V14.01,2013-07-12 08:20:00,
2013-07-12 04:30:00,71.5,71.5,29.73,NNW,340,0.0,0.0,100,0.00,,---,0.13,VWS V14.01,2013-07-12 08:30:00,
2013-07-12 04:40:00,71.5,71.5,29.73,NNW,340,0.0,0.0,100,0.00,,---,0.13,VWS V14.01,2013-07-12 08:40:00,
2013-07-12 04:50:00,71.5,71.5,29.73,NNW,340,0.0,1.0,100,0.00,,---,0.13,VWS V14.01,2013-07-12 08:50:00,
2013-07-12 05:00:00,71.6,71.6,29.73,NNW,340,0.0,0.0,100,0.00,,---,0.13,VWS V14.01,2013-07-12 09:00:00,
2013-07-12 05:10:00,71.6,71.6,29.73,NNW,340,0.0,0.0,100,0.00,,---,0.13,VWS V14.01,2013-07-12 09:10:00,
2013-07-12 05:20:00,71.6,71.6,29.73,NNW,340,0.0,0.0,100,0.00,,---,0.13,VWS V14.01,2013-07-12 09:20:00,
2013-07-12 05:30:00,71.8,71.8,29.73,NNW,340,0.0,0.0,100,0.00,,---,0.13,VWS V14.01,2013-07-12 09:30:00,
2013-07-12 05:40:00,71.8,71.8,29.73,NNW,340,0.0,0.0,100,0.00,,---,0.13,VWS V14.01,2013-07-12 09:40:00,
2013-07-12 05:50:00,71.8,71.8,29.74,NNW,340,0.0,0.0,100,0.00,,---,0.13,VWS V14.01,2013-07-12 09:50:00,
2013-07-12 06:00:00,71.6,71.6,29.74,NNW,340,0.0,0.0,100,0.00,,---,0.13,VWS V14.01,2013-07-12 10:00:00,
2013-07-12 06:10:00,71.6,71.6,29.74,NNW,340,0.0,0.0,100,0.00,,---,0.13,VWS V14.01,2013-07-12 10:10:00,
2013-07-12 06:20:00,71.6,71.6,29.75,NNW,340,0.0,0.0,100,0.00,,---,0.13,VWS V14.01,2013-07-12 10:20:00,
2013-07-12 06:30:00,71.8,71.8,29.75,NNW,340,0.0,0.0,100,0.00,,---,0.13,VWS V14.01,2013-07-12 10:30:00,
2013-07-12 06:40:00,71.8,71.8,29.75,NNW,340,0.0,0.0,100,0.00,,---,0.13,VWS V14.01,2013-07-12 10:40:00,
2013-07-12 06:50:00,71.6,71.6,29.75,NNW,340,0.0,0.0,100,0.00,,---,0.13,VWS V14.01,2013-07-12 10:50:00,
2013-07-12 07:00:00,71.8,71.8,29.75,NNW,340,0.0,0.0,100,0.00,,---,0.13,VWS V14.01,2013-07-12 11:00:00,
2013-07-12 07:10:00,71.8,71.8,29.75,NNW,340,0.0,0.0,100,0.00,,---,0.13,VWS V14.01,2013-07-12 11:10:00,
2013-07-12 07:20:00,72.0,72.0,29.75,NNW,340,0.0,0.0,100,0.00,,---,0.13,VWS V14.01,2013-07-12 11:20:00,
2013-07-12 07:30:00,72.3,72.3,29.75,NNW,340,0.0,0.0,100,0.00,,---,0.13,VWS V14.01,2013-07-12 11:30:00,
2013-07-12 07:40:00,72.5,72.5,29.75,NNW,340,0.0,0.0,100,0.00,,---,0.13,VWS V14.01,2013-07-12 11:40:00,
2013-07-12 07:50:00,72.7,72.7,29.75,NNW,340,0.0,0.0,100,0.00,,---,0.13,VWS V14.01,2013-07-12 11:50:00,
2013-07-12 08:00:00,72.7,72.7,29.76,NNW,340,0.0,0.0,100,0.00,,---,0.13,VWS V14.01,2013-07-12 12:00:00,
2013-07-12 08:10:00,72.7,72.7,29.76,NNW,340,0.0,0.0,100,0.00,,---,0.13,VWS V14.01,2013-07-12 12:10:00,
2013-07-12 08:20:00,72.7,72.7,29.76,NNW,340,0.0,0.0,100,0.00,,---,0.13,VWS V14.01,2013-07-12 12:20:00,
2013-07-12 08:30:00,72.7,72.7,29.76,NNW,340,0.0,0.0,100,0.00,,---,0.13,VWS V14.01,2013-07-12 12:30:00,
2013-07-12 08:40:00,72.7,72.7,29.76,NNW,340,0.0,0.0,100,0.00,,---,0.13,VWS V14.01,2013-07-12 12:40:00,
2013-07-12 08:50:00,72.5,72.5,29.77,NNW,340,0.0,0.0,100,0.00,,---,0.13,VWS V14.01,2013-07-12 12:50:00,
2013-07-12 09:00:00,72.3,72.3,29.77,NNW,340,0.0,0.0,100,0.00,,---,0.13,VWS V14.01,2013-07-12 13:00:00,
2013-07-12 09:10:00,72.3,72.3,29.77,NNW,340,0.0,0.0,100,0.00,,---,0.13,VWS V14.01,2013-07-12 13:10:00,
2013-07-12 09:20:00,72.1,72.1,29.78,NNW,340,0.0,0.0,100,0.00,,---,0.13,VWS V14.01,2013-07-12 13:20:00,
2013-07-12 09:30:00,72.1,72.1,29.78,NNW,340,0.0,0.0,100,0.00,,---,0.13,VWS V14.01,2013-07-12 13:30:00,
2013-07-12 09:40:00,72.0,72.0,29.78,NNW,340,0.0,0.0,100,0.00,,---,0.13,VWS V14.01,2013-07-12 13:40:00,
2013-07-12 09:50:00,71.8,71.8,29.78,NNW,340,0.0,0.0,100,0.00,,---,0.13,VWS V14.01,2013-07-12 13:50:00,
2013-07-12 10:00:00,71.8,71.8,29.78,NNW,340,0.0,0.0,100,0.00,,---,0.13,VWS V14.01,2013-07-12 14:00:00,
2013-07-12 10:10:00,72.0,72.0,29.78,NNW,340,0.0,0.0,100,0.00,,---,0.13,VWS V14.01,2013-07-12 14:10:00,
2013-07-12 10:20:00,72.0,72.0,29.78,NNW,340,0.0,0.0,100,0.00,,---,0.13,VWS V14.01,2013-07-12 14:20:00,
2013-07-12 10:30:00,72.1,72.1,29.78,NNW,340,0.0,0.0,100,0.00,,---,0.13,VWS V14.01,2013-07-12 14:30:00,
2013-07-12 10:40:00,72.7,72.7,29.78,NNW,340,0.0,0.0,100,0.00,,---,0.13,VWS V14.01,2013-07-12 14:40:00,
2013-07-12 10:50:00,72.3,72.3,29.78,NNW,340,0.0,0.0,100,0.00,,---,0.13,VWS V14.01,2013-07-12 14:50:00,
2013-07-12 11:00:00,72.1,72.1,29.78,NNW,340,0.0,0.0,100,0.00,,---,0.13,VWS V14.01,2013-07-12 15:00:00,
2013-07-12 11:10:00,72.5,72.5,29.78,NNW,340,0.0,0.0,100,0.00,,---,0.13,VWS V14.01,2013-07-12 15:10:00,
2013-07-12 11:20:00,72.7,72.7,29.78,NNW,340,0.0,0.0,100,0.00,,---,0.13,VWS V14.01,2013-07-12 15:20:00,
2013-07-12 11:30:00,73.0,73.0,29.79,NNW,340,0.0,0.0,100,0.00,,---,0.13,VWS V14.01,2013-07-12 15:30:00,
2013-07-12 11:40:00,73.2,73.2,29.79,South,189,0.0,0.0,100,0.01,,---,0.14,VWS V14.01,2013-07-12 15:40:00,
2013-07-12 11:50:00,73.0,73.0,29.79,SE,144,0.0,0.0,100,0.01,,---,0.14,VWS V14.01,2013-07-12 15:50:00,
2013-07-12 12:00:00,73.2,73.2,29.79,SSE,147,0.0,0.0,100,0.01,,---,0.14,VWS V14.01,2013-07-12 16:00:00,
2013-07-12 12:10:00,73.9,73.9,29.79,SSE,147,0.0,0.0,100,0.01,,---,0.14,VWS V14.01,2013-07-12 16:10:00,
2013-07-12 12:20:00,74.0,74.0,29.79,South,178,0.0,0.0,100,0.01,,---,0.14,VWS V14.01,2013-07-12 16:20:00,
2013-07-12 12:30:00,73.9,73.9,29.79,South,178,0.0,0.0,100,0.01,,---,0.14,VWS V14.01,2013-07-12 16:30:00,
2013-07-12 12:40:00,73.9,73.9,29.79,South,175,0.0,0.0,100,0.01,,---,0.14,VWS V14.01,2013-07-12 16:40:00,
2013-07-12 12:50:00,73.7,73.7,29.78,South,184,0.0,2.0,100,0.00,,---,0.14,VWS V14.01,2013-07-12 16:50:00,
2013-07-12 13:00:00,73.9,73.9,29.78,SSW,193,0.0,1.0,100,0.00,,---,0.14,VWS V14.01,2013-07-12 17:00:00,
2013-07-12 13:10:00,74.4,74.4,29.78,SSW,199,0.0,0.0,100,0.00,,---,0.14,VWS V14.01,2013-07-12 17:10:00,
2013-07-12 13:20:00,74.0,74.0,29.78,SSW,210,0.0,0.0,100,0.00,,---,0.14,VWS V14.01,2013-07-12 17:20:00,
2013-07-12 13:30:00,74.2,74.2,29.79,SSW,210,0.0,0.0,100,0.00,,---,0.14,VWS V14.01,2013-07-12 17:30:00,
2013-07-12 13:40:00,74.0,74.0,29.79,SSW,210,0.0,0.0,100,0.00,,---,0.14,VWS V14.01,2013-07-12 17:40:00,
2013-07-12 13:50:00,73.7,73.7,29.78,South,184,0.0,2.0,100,0.00,,---,0.14,VWS V14.01,2013-07-12 17:50:00,
2013-07-12 14:00:00,73.5,73.5,29.79,SSW,210,0.0,0.0,100,0.00,,---,0.14,VWS V14.01,2013-07-12 18:00:00,
2013-07-12 14:10:00,73.7,73.7,29.79,SSW,210,0.0,0.0,100,0.00,,---,0.14,VWS V14.01,2013-07-12 18:10:00,
2013-07-12 14:20:00,74.0,74.0,29.79,SSW,193,0.0,1.0,100,0.00,,---,0.14,VWS V14.01,2013-07-12 18:20:00,
2013-07-12 14:30:00,73.9,73.9,29.80,SW,216,0.0,2.0,100,0.00,,---,0.14,VWS V14.01,2013-07-12 18:30:00,
2013-07-12 14:40:00,74.0,74.0,29.80,SW,215,0.0,0.0,100,0.00,,---,0.14,VWS V14.01,2013-07-12 18:40:00,
2013-07-12 14:50:00,74.0,74.0,29.80,South,178,0.0,1.0,100,0.00,,---,0.14,VWS V14.01,2013-07-12 18:50:00,
2013-07-12 15:00:00,73.9,73.9,29.80,SW,229,0.0,0.0,100,0.00,,---,0.14,VWS V14.01,2013-07-12 19:00:00,
2013-07-12 15:10:00,73.9,73.9,29.80,SW,229,0.0,0.0,100,0.00,,---,0.14,VWS V14.01,2013-07-12 19:10:00,
2013-07-12 15:20:00,73.9,73.9,29.80,SW,229,0.0,0.0,100,0.00,,---,0.14,VWS V14.01,2013-07-12 19:20:00,
2013-07-12 15:30:00,73.9,73.9,29.80,SW,229,0.0,0.0,100,0.00,,---,0.14,VWS V14.01,2013-07-12 19:30:00,
2013-07-12 15:40:00,74.0,74.0,29.80,SW,215,0.0,0.0,100,0.00,,---,0.14,VWS V14.01,2013-07-12 19:40:00,
2013-07-12 15:50:00,73.9,73.9,29.80,SW,229,0.0,0.0,100,0.00,,---,0.14,VWS V14.01,2013-07-12 19:50:00,
2013-07-12 16:00:00,73.7,73.7,29.81,SW,229,0.0,0.0,100,0.00,,---,0.14,VWS V14.01,2013-07-12 20:00:00,
2013-07-12 16:10:00,73.9,73.9,29.81,SW,229,0.0,0.0,100,0.00,,---,0.14,VWS V14.01,2013-07-12 20:10:00,
2013-07-12 16:20:00,73.9,73.9,29.81,SW,229,0.0,0.0,100,0.00,,---,0.14,VWS V14.01,2013-07-12 20:20:00,
2013-07-12 16:30:00,73.9,73.9,29.80,SW,229,0.0,0.0,100,0.00,,---,0.14,VWS V14.01,2013-07-12 20:30:00,
2013-07-12 16:40:00,73.7,73.7,29.80,SW,229,0.0,0.0,100,0.00,,---,0.14,VWS V14.01,2013-07-12 20:40:00,
2013-07-12 16:50:00,73.7,73.7,29.81,SW,229,0.0,0.0,100,0.00,,---,0.14,VWS V14.01,2013-07-12 20:50:00,
2013-07-12 17:00:00,73.7,73.7,29.81,SW,229,0.0,0.0,100,0.00,,---,0.14,VWS V14.01,2013-07-12 21:00:00,
2013-07-12 17:10:00,73.9,73.9,29.81,SW,229,0.0,0.0,100,0.00,,---,0.14,VWS V14.01,2013-07-12 21:10:00,
2013-07-12 17:20:00,73.9,73.9,29.81,SW,229,0.0,0.0,100,0.00,,---,0.14,VWS V14.01,2013-07-12 21:20:00,
2013-07-12 17:30:00,74.0,74.0,29.81,SSW,195,0.0,0.0,100,0.00,,---,0.14,VWS V14.01,2013-07-12 21:30:00,
2013-07-12 17:40:00,74.0,74.0,29.81,SE,141,0.0,0.0,100,0.00,,---,0.14,VWS V14.01,2013-07-12 21:40:00,
2013-07-12 17:50:00,74.2,74.2,29.80,SSE,162,0.0,0.0,100,0.00,,---,0.14,VWS V14.01,2013-07-12 21:50:00,
2013-07-12 18:00:00,74.2,74.2,29.80,SSE,160,0.0,0.0,100,0.00,,---,0.14,VWS V14.01,2013-07-12 22:00:00,
2013-07-12 18:10:00,74.6,74.6,29.80,SSE,160,0.0,0.0,100,0.00,,---,0.14,VWS V14.01,2013-07-12 22:10:00,
2013-07-12 18:20:00,74.4,74.4,29.80,SSE,160,0.0,0.0,100,0.00,,---,0.14,VWS V14.01,2013-07-12 22:20:00,
2013-07-12 18:30:00,74.2,74.2,29.81,SSE,160,0.0,0.0,100,0.00,,---,0.14,VWS V14.01,2013-07-12 22:30:00,
2013-07-12 18:40:00,74.0,74.0,29.81,SE,141,0.0,0.0,100,0.00,,---,0.14,VWS V14.01,2013-07-12 22:40:00,
2013-07-12 18:50:00,74.4,74.4,29.81,SSE,160,0.0,0.0,100,0.00,,---,0.14,VWS V14.01,2013-07-12 22:50:00,
2013-07-12 19:00:00,74.2,74.2,29.81,SSE,160,0.0,0.0,100,0.00,,---,0.14,VWS V14.01,2013-07-12 23:00:00,
2013-07-12 19:10:00,74.2,74.2,29.81,SSE,160,0.0,0.0,100,0.00,,---,0.14,VWS V14.01,2013-07-12 23:10:00,
2013-07-12 19:20:00,74.4,74.4,29.80,SSE,160,0.0,0.0,100,0.00,,---,0.14,VWS V14.01,2013-07-12 23:20:00,
2013-07-12 19:30:00,74.0,74.0,29.82,SSE,160,0.0,0.0,100,0.00,,---,0.14,VWS V14.01,2013-07-12 23:30:00,
2013-07-12 19:40:00,73.9,73.9,29.82,SSE,160,0.0,0.0,100,0.00,,---,0.14,VWS V14.01,2013-07-12 23:40:00,
2013-07-12 19:50:00,73.7,73.7,29.83,SSE,160,0.0,0.0,100,0.00,,---,0.14,VWS V14.01,2013-07-12 23:50:00,
2013-07-12 20:00:00,73.5,73.5,29.83,SSE,160,0.0,0.0,100,0.00,,---,0.14,VWS V14.01,2013-07-13 00:00:00,
2013-07-12 20:10:00,73.3,73.3,29.83,SSE,160,0.0,0.0,100,0.00,,---,0.14,VWS V14.01,2013-07-13 00:10:00,
2013-07-12 20:20:00,74.0,74.0,29.82,SSE,160,0.0,0.0,100,0.00,,---,0.14,VWS V14.01,2013-07-13 00:20:00,
2013-07-12 20:30:00,74.0,74.0,29.82,SSE,160,0.0,0.0,100,0.00,,---,0.14,VWS V14.01,2013-07-13 00:30:00,
2013-07-12 20:40:00,72.7,72.7,29.83,SSE,160,0.0,0.0,100,0.00,,---,0.14,VWS V14.01,2013-07-13 00:40:00,
2013-07-12 20:50:00,72.5,72.5,29.84,SSE,160,0.0,0.0,100,0.00,,---,0.14,VWS V14.01,2013-07-13 00:50:00,
2013-07-12 21:00:00,72.5,72.5,29.83,SSE,160,0.0,0.0,100,0.00,,---,0.14,VWS V14.01,2013-07-13 01:00:00,
2013-07-12 21:10:00,73.3,73.3,29.83,SSE,160,0.0,0.0,100,0.00,,---,0.14,VWS V14.01,2013-07-13 01:10:00,
2013-07-12 21:20:00,72.1,72.1,29.83,SSE,160,0.0,0.0,100,0.00,,---,0.14,VWS V14.01,2013-07-13 01:20:00,
2013-07-12 21:30:00,72.8,72.8,29.83,SSE,160,0.0,0.0,100,0.00,,---,0.14,VWS V14.01,2013-07-13 01:30:00,
2013-07-12 21:40:00,71.8,71.8,29.84,SSE,160,0.0,0.0,100,0.00,,---,0.14,VWS V14.01,2013-07-13 01:40:00,
2013-07-12 21:50:00,71.8,71.8,29.85,SSE,160,0.0,0.0,100,0.00,,---,0.14,VWS V14.01,2013-07-13 01:50:00,
2013-07-12 22:00:00,71.8,71.8,29.85,SSE,160,0.0,0.0,100,0.00,,---,0.14,VWS V14.01,2013-07-13 02:00:00,
2013-07-12 22:10:00,71.5,71.5,29.85,SSE,160,0.0,0.0,100,0.00,,---,0.14,VWS V14.01,2013-07-13 02:10:00,
2013-07-12 22:20:00,71.3,71.3,29.86,SSE,160,0.0,0.0,100,0.00,,---,0.14,VWS V14.01,2013-07-13 02:20:00,
2013-07-12 22:30:00,71.1,71.1,29.85,SSE,160,0.0,0.0,100,0.00,,---,0.14,VWS V14.01,2013-07-13 02:30:00,
2013-07-12 22:40:00,71.1,71.1,29.85,SSE,160,0.0,0.0,100,0.00,,---,0.14,VWS V14.01,2013-07-13 02:40:00,
2013-07-12 22:50:00,70.9,70.9,29.86,SSE,160,0.0,0.0,100,0.00,,---,0.14,VWS V14.01,2013-07-13 02:50:00,
2013-07-12 23:00:00,70.9,70.9,29.87,SSE,160,0.0,0.0,100,0.00,,---,0.14,VWS V14.01,2013-07-13 03:00:00,
2013-07-12 23:10:00,70.8,70.8,29.87,SSE,160,0.0,0.0,100,0.00,,---,0.14,VWS V14.01,2013-07-13 03:10:00,
2013-07-12 23:20:00,70.8,70.8,29.87,SSE,162,0.0,0.0,100,0.00,,---,0.14,VWS V14.01,2013-07-13 03:20:00,
2013-07-12 23:30:00,70.8,70.8,29.87,SSE,162,0.0,0.0,100,0.00,,---,0.14,VWS V14.01,2013-07-13 03:30:00,
2013-07-12 23:40:00,70.8,70.8,29.87,SSE,162,0.0,0.0,100,0.00,,---,0.14,VWS V14.01,2013-07-13 03:40:00,
2013-07-12 23:50:00,70.8,70.8,29.87,SSE,162,0.0,0.0,100,0.00,,---,0.14,VWS V14.01,2013-07-13 03:50:00,